Starlink 34334

operational
NORAD ID: 64273 Int'l Des: 2025-120 Owner: SPXS Country: US Constellation: starlink
LEOCIRCULAR

Starlink 34334について

説明を読み込み中...

リアルタイム位置

3D地球を読み込み中...

次回通過

高度履歴

Altitude vs Time

uPlot chart will show altitude changes over time

軌道要素

1 64273U 25120T 26095.42355689 .00028460 00000-0 97026-3 0 9993
2 64273 53.1599 352.2029 0000767 82.8315 277.2773 15.30168951 48013
Epoch: Apr 5, 2026 • Age: 9 hours

現在のステータス

高度 478.5 km
速度 7.63 km/s
衛星直下点 -11.69°S, 145.2°W
打ち上げ日 Jun 4, 2025
運用期間 0.8 years
タイプ internet

技術仕様

分類 Payload
質量 575.00 kg
乾燥質量 530.00 kg
総質量 575.00 kg
長さ 0.30 m
直径 4.10 m
スパン 29.00 m
形状 Box + pan
製造者 SPXS
バスタイプ Starlink V2MO
フェーズステータス In Orbit
所有者/国 SPXS/US

大規模コンステレーション

Loading constellations...